Powrót do katalogu

STARLINK-11458

AktywnyŁącznośćVLEO
NORAD 62982·PAYLOAD·🇺🇸 United States

Wystrzelony Feb 11, 2025 z Cape Canaveral Space Force Station

Loading…

Następne Przeloty (najbliższe 24 godziny)

TLE

ŚwieżeSource: CelesTrak SupGP

Epoka: Sep 14, 2026, 22:50 UTC

1 62982C 25031B   26257.95187500 -.00023252  00000+0 -18064-3 0  2579
2 62982  43.0004 300.5264 0001528 260.3898 322.0434 15.70844545    14

Śledź STARLINK-11458 w czasie rzeczywistym z AllMySat

Download on the App Store